Time,TemperatureF,DewpointF,PressureIn,WindDirection,WindDirectionDegrees,WindSpeedMPH,WindSpeedGustMPH,Humidity,HourlyPrecipIn,Conditions,Clouds,dailyrainin,SoftwareType,DateUTC
2013-08-22 00:01:00,70.5,50.5,30.13,South,176,0.0,0.0,49,0.00,,,0.00,VWS V14.01,2013-08-22 04:01:00,
2013-08-22 00:06:00,70.5,50.5,30.13,South,176,0.0,0.0,49,0.00,,,0.00,VWS V14.01,2013-08-22 04:06:00,
2013-08-22 00:11:00,70.5,50.5,30.13,South,176,0.0,0.0,49,0.00,,,0.00,VWS V14.01,2013-08-22 04:11:00,
2013-08-22 00:16:00,70.5,50.5,30.13,South,176,0.0,0.0,49,0.00,,,0.00,VWS V14.01,2013-08-22 04:16:00,
2013-08-22 00:21:00,70.5,50.5,30.13,South,176,0.0,0.0,49,0.00,,,0.00,VWS V14.01,2013-08-22 04:21:00,
2013-08-22 00:26:00,59.7,54.9,30.13,South,176,0.0,0.0,84,0.00,,,0.00,VWS V14.01,2013-08-22 04:26:00,
2013-08-22 00:31:00,59.7,55.2,30.13,South,176,0.0,0.0,85,0.00,,,0.00,VWS V14.01,2013-08-22 04:31:00,
2013-08-22 00:37:00,59.7,55.2,30.13,South,176,0.0,0.0,85,0.00,,,0.00,VWS V14.01,2013-08-22 04:37:00,
2013-08-22 00:42:00,59.7,55.2,30.13,South,176,0.0,0.0,85,0.00,,,0.00,VWS V14.01,2013-08-22 04:42:00,
2013-08-22 00:47:00,59.7,55.5,30.13,South,176,0.0,0.0,86,0.00,,,0.00,VWS V14.01,2013-08-22 04:47:00,
2013-08-22 00:52:00,59.7,55.5,30.13,South,176,0.0,0.0,86,0.00,,,0.00,VWS V14.01,2013-08-22 04:52:00,
2013-08-22 00:57:00,59.4,55.2,30.13,South,176,0.0,0.0,86,0.00,,,0.00,VWS V14.01,2013-08-22 04:57:00,
2013-08-22 01:02:00,59.2,55.0,30.13,South,176,0.0,0.0,86,0.00,,,0.00,VWS V14.01,2013-08-22 05:02:00,
2013-08-22 01:07:00,59.2,55.0,30.13,South,176,0.0,0.0,86,0.00,,,0.00,VWS V14.01,2013-08-22 05:07:00,
2013-08-22 01:12:00,59.0,54.8,30.13,South,176,0.0,0.0,86,0.00,,,0.00,VWS V14.01,2013-08-22 05:12:00,
2013-08-22 01:17:00,58.8,55.0,30.13,South,176,0.0,0.0,87,0.00,,,0.00,VWS V14.01,2013-08-22 05:17:00,
2013-08-22 01:22:00,58.8,55.0,30.13,South,176,0.0,0.0,87,0.00,,,0.00,VWS V14.01,2013-08-22 05:22:00,
2013-08-22 01:27:00,58.8,55.0,30.13,South,176,0.0,0.0,87,0.00,,,0.00,VWS V14.01,2013-08-22 05:27:00,
2013-08-22 01:32:00,58.6,54.8,30.13,South,176,0.0,0.0,87,0.00,,,0.00,VWS V14.01,2013-08-22 05:32:00,
2013-08-22 01:37:00,58.6,54.8,30.13,South,176,0.0,0.0,87,0.00,,,0.00,VWS V14.01,2013-08-22 05:37:00,
2013-08-22 01:42:00,58.5,54.6,30.13,South,176,0.0,0.0,87,0.00,,,0.00,VWS V14.01,2013-08-22 05:42:00,
2013-08-22 01:47:00,58.5,54.6,30.13,South,176,0.0,0.0,87,0.00,,,0.00,VWS V14.01,2013-08-22 05:47:00,
2013-08-22 01:52:00,58.3,54.4,30.13,South,176,0.0,0.0,87,0.00,,,0.00,VWS V14.01,2013-08-22 05:52:00,
2013-08-22 01:57:00,58.1,54.3,30.13,South,176,0.0,0.0,87,0.00,,,0.00,VWS V14.01,2013-08-22 05:57:00,
2013-08-22 02:02:00,58.1,54.3,30.13,South,176,0.0,0.0,87,0.00,,,0.00,VWS V14.01,2013-08-22 06:02:00,
2013-08-22 02:07:00,58.1,54.6,30.13,South,176,0.0,0.0,88,0.00,,,0.00,VWS V14.01,2013-08-22 06:07:00,
2013-08-22 02:12:00,58.1,54.6,30.13,South,176,0.0,0.0,88,0.00,,,0.00,VWS V14.01,2013-08-22 06:12:00,
2013-08-22 02:17:00,58.3,54.8,30.13,South,176,0.0,0.0,88,0.00,,,0.00,VWS V14.01,2013-08-22 06:17:00,
2013-08-22 02:22:00,58.5,54.9,30.13,South,176,0.0,0.0,88,0.00,,,0.00,VWS V14.01,2013-08-22 06:22:00,
2013-08-22 02:27:00,58.5,54.9,30.13,South,176,0.0,0.0,88,0.00,,,0.00,VWS V14.01,2013-08-22 06:27:00,
2013-08-22 02:32:00,58.6,55.1,30.13,South,176,0.0,0.0,88,0.00,,,0.00,VWS V14.01,2013-08-22 06:32:00,
2013-08-22 02:37:00,58.6,55.1,30.13,South,176,0.0,0.0,88,0.00,,,0.00,VWS V14.01,2013-08-22 06:37:00,
2013-08-22 02:42:00,58.6,55.4,30.10,South,176,0.0,0.0,89,0.00,,,0.00,VWS V14.01,2013-08-22 06:42:00,
2013-08-22 02:47:00,58.8,55.6,30.10,South,176,0.0,0.0,89,0.00,,,0.00,VWS V14.01,2013-08-22 06:47:00,
2013-08-22 02:52:00,58.8,55.6,30.10,South,176,0.0,0.0,89,0.00,,,0.00,VWS V14.01,2013-08-22 06:52:00,
2013-08-22 02:57:00,58.6,55.4,30.10,South,176,0.0,0.0,89,0.00,,,0.00,VWS V14.01,2013-08-22 06:57:00,
2013-08-22 03:02:00,58.6,55.4,30.10,South,176,0.0,0.0,89,0.00,,,0.00,VWS V14.01,2013-08-22 07:02:00,
2013-08-22 03:07:00,58.6,55.4,30.10,South,176,0.0,0.0,89,0.00,,,0.00,VWS V14.01,2013-08-22 07:07:00,
2013-08-22 03:12:00,58.5,55.2,30.10,South,176,0.0,0.0,89,0.00,,,0.00,VWS V14.01,2013-08-22 07:12:00,
2013-08-22 03:17:00,58.5,55.2,30.10,South,176,0.0,0.0,89,0.00,,,0.00,VWS V14.01,2013-08-22 07:17:00,
2013-08-22 03:22:00,58.5,55.2,30.10,South,176,0.0,0.0,89,0.00,,,0.00,VWS V14.01,2013-08-22 07:22:00,
2013-08-22 03:27:00,58.5,55.2,30.10,South,176,0.0,0.0,89,0.00,,,0.00,VWS V14.01,2013-08-22 07:27:00,
2013-08-22 03:33:00,58.5,55.5,30.10,South,176,0.0,0.0,90,0.00,,,0.00,VWS V14.01,2013-08-22 07:33:00,
2013-08-22 03:38:00,58.5,55.5,30.10,South,176,0.0,0.0,90,0.00,,,0.00,VWS V14.01,2013-08-22 07:38:00,
2013-08-22 03:43:00,58.6,55.7,30.10,South,176,0.0,0.0,90,0.00,,,0.00,VWS V14.01,2013-08-22 07:43:00,
2013-08-22 03:48:00,58.6,55.7,30.10,South,176,0.0,0.0,90,0.00,,,0.00,VWS V14.01,2013-08-22 07:48:00,
2013-08-22 03:53:00,58.6,55.7,30.10,South,176,0.0,0.0,90,0.00,,,0.00,VWS V14.01,2013-08-22 07:53:00,
2013-08-22 03:58:00,58.5,55.5,30.10,South,176,0.0,0.0,90,0.00,,,0.00,VWS V14.01,2013-08-22 07:58:00,
2013-08-22 04:03:00,58.5,55.5,30.10,South,176,0.0,0.0,90,0.00,,,0.00,VWS V14.01,2013-08-22 08:03:00,
2013-08-22 04:08:00,58.5,55.5,30.10,South,176,0.0,0.0,90,0.00,,,0.00,VWS V14.01,2013-08-22 08:08:00,
2013-08-22 04:13:00,58.5,55.5,30.10,South,176,0.0,0.0,90,0.00,,,0.00,VWS V14.01,2013-08-22 08:13:00,
2013-08-22 04:18:00,58.5,55.5,30.10,South,176,0.0,0.0,90,0.00,,,0.00,VWS V14.01,2013-08-22 08:18:00,
2013-08-22 04:23:00,58.5,55.5,30.10,South,176,0.0,0.0,90,0.00,,,0.00,VWS V14.01,2013-08-22 08:23:00,
2013-08-22 04:28:00,58.5,55.5,30.10,South,176,0.0,0.0,90,0.00,,,0.00,VWS V14.01,2013-08-22 08:28:00,
2013-08-22 04:33:00,58.5,55.5,30.10,South,176,0.0,0.0,90,0.00,,,0.00,VWS V14.01,2013-08-22 08:33:00,
2013-08-22 04:38:00,58.5,55.5,30.10,South,176,0.0,0.0,90,0.00,,,0.00,VWS V14.01,2013-08-22 08:38:00,
2013-08-22 04:43:00,58.3,55.4,30.07,South,176,0.0,0.0,90,0.00,,,0.00,VWS V14.01,2013-08-22 08:43:00,
2013-08-22 04:48:00,58.3,55.7,30.07,South,176,0.0,0.0,91,0.00,,,0.00,VWS V14.01,2013-08-22 08:48:00,
2013-08-22 04:53:00,58.3,55.7,30.07,South,176,0.0,0.0,91,0.00,,,0.00,VWS V14.01,2013-08-22 08:53:00,
2013-08-22 04:58:00,58.1,55.5,30.07,South,176,0.0,0.0,91,0.00,,,0.00,VWS V14.01,2013-08-22 08:58:00,
2013-08-22 05:03:00,58.1,55.5,30.07,South,176,0.0,0.0,91,0.00,,,0.00,VWS V14.01,2013-08-22 09:03:00,
2013-08-22 05:08:00,58.1,55.5,30.07,South,176,0.0,0.0,91,0.00,,,0.00,VWS V14.01,2013-08-22 09:08:00,
2013-08-22 05:13:00,58.1,55.5,30.07,South,176,0.0,0.0,91,0.00,,,0.00,VWS V14.01,2013-08-22 09:13:00,
2013-08-22 05:18:00,58.1,55.5,30.07,South,176,0.0,0.0,91,0.00,,,0.00,VWS V14.01,2013-08-22 09:18:00,
2013-08-22 05:23:00,58.1,55.5,30.07,South,176,0.0,0.0,91,0.00,,,0.00,VWS V14.01,2013-08-22 09:23:00,
2013-08-22 05:28:00,57.9,55.3,30.07,South,176,0.0,0.0,91,0.00,,,0.00,VWS V14.01,2013-08-22 09:28:00,
2013-08-22 05:33:00,57.9,55.3,30.07,South,176,0.0,0.0,91,0.00,,,0.00,VWS V14.01,2013-08-22 09:33:00,
2013-08-22 05:38:00,57.9,55.3,30.07,North,353,0.0,0.0,91,0.00,,,0.00,VWS V14.01,2013-08-22 09:38:00,
2013-08-22 05:43:00,57.9,55.3,30.07,North,353,0.0,0.0,91,0.00,,,0.00,VWS V14.01,2013-08-22 09:43:00,
2013-08-22 05:48:00,57.9,55.3,30.07,North,353,0.0,0.0,91,0.00,,,0.00,VWS V14.01,2013-08-22 09:48:00,
2013-08-22 05:53:00,57.9,55.3,30.07,North,353,0.0,0.0,91,0.00,,,0.00,VWS V14.01,2013-08-22 09:53:00,
2013-08-22 05:58:00,57.9,55.3,30.07,North,353,0.0,0.0,91,0.00,,,0.00,VWS V14.01,2013-08-22 09:58:00,
2013-08-22 06:03:00,57.7,55.1,30.07,North,353,0.0,0.0,91,0.00,,,0.00,VWS V14.01,2013-08-22 10:03:00,
2013-08-22 06:09:00,57.6,55.0,30.07,North,353,0.0,0.0,91,0.00,,,0.00,VWS V14.01,2013-08-22 10:09:00,
2013-08-22 06:14:00,57.6,55.0,30.07,North,353,0.0,0.0,91,0.00,,,0.00,VWS V14.01,2013-08-22 10:14:00,
2013-08-22 06:19:00,57.6,55.0,30.07,North,353,0.0,0.0,91,0.00,,,0.00,VWS V14.01,2013-08-22 10:19:00,
2013-08-22 06:24:00,57.6,55.0,30.07,North,353,0.0,0.0,91,0.00,,,0.00,VWS V14.01,2013-08-22 10:24:00,
2013-08-22 06:29:00,57.4,55.1,30.07,North,353,0.0,0.0,92,0.00,,,0.00,VWS V14.01,2013-08-22 10:29:00,
2013-08-22 06:34:00,57.4,55.1,30.07,North,353,0.0,0.0,92,0.00,,,0.00,VWS V14.01,2013-08-22 10:34:00,
2013-08-22 06:39:00,57.4,55.1,30.07,North,353,0.0,0.0,92,0.00,,,0.00,VWS V14.01,2013-08-22 10:39:00,
2013-08-22 06:44:00,57.4,55.1,30.07,North,353,0.0,0.0,92,0.00,,,0.00,VWS V14.01,2013-08-22 10:44:00,
2013-08-22 06:49:00,57.4,55.1,30.07,North,353,0.0,0.0,92,0.00,,,0.00,VWS V14.01,2013-08-22 10:49:00,
2013-08-22 08:27:00,66.0,63.6,30.07,South,171,0.0,2.7,92,0.00,,,0.00,VWS V14.01,2013-08-22 12:27:00,
2013-08-22 08:32:00,66.0,63.6,30.07,SSE,153,5.4,5.4,92,0.00,,,0.00,VWS V14.01,2013-08-22 12:32:00,
2013-08-22 08:37:00,67.5,64.8,30.07,SSE,168,4.0,5.4,91,0.00,,,0.00,VWS V14.01,2013-08-22 12:37:00,
2013-08-22 08:42:00,67.5,64.8,30.07,SSE,164,0.0,0.0,91,0.00,,,0.00,VWS V14.01,2013-08-22 12:42:00,
2013-08-22 08:47:00,67.5,64.8,30.07,SE,142,0.0,0.0,91,0.00,,,0.00,VWS V14.01,2013-08-22 12:47:00,
2013-08-22 08:52:00,67.5,64.8,30.07,SE,145,0.0,0.0,91,0.00,,,0.00,VWS V14.01,2013-08-22 12:52:00,
2013-08-22 08:57:00,67.5,64.8,30.07,SSE,163,3.6,3.6,91,0.00,,,0.00,VWS V14.01,2013-08-22 12:57:00,
2013-08-22 09:00:00,67.5,64.8,30.07,SSE,163,3.6,3.6,91,0.00,,,0.00,VWS V14.01,2013-08-22 13:00:00,
2013-08-22 09:05:00,67.5,64.8,30.07,SSE,157,0.0,3.6,91,0.00,,,0.00,VWS V14.01,2013-08-22 13:05:00,
2013-08-22 09:10:00,67.5,64.8,30.07,SSE,153,3.1,3.1,91,0.00,,,0.00,VWS V14.01,2013-08-22 13:10:00,
2013-08-22 09:15:00,69.1,64.7,30.07,South,175,4.0,4.0,86,0.00,,,0.00,VWS V14.01,2013-08-22 13:15:00,
2013-08-22 09:20:00,69.1,64.7,30.07,SSE,166,3.1,3.1,86,0.00,,,0.00,VWS V14.01,2013-08-22 13:20:00,
2013-08-22 09:25:00,69.6,64.6,30.07,SE,133,3.1,4.0,84,0.00,,,0.00,VWS V14.01,2013-08-22 13:25:00,
2013-08-22 09:30:00,69.6,64.6,30.07,SE,133,3.1,3.1,84,0.00,,,0.00,VWS V14.01,2013-08-22 13:30:00,
2013-08-22 09:35:00,70.3,64.2,30.07,SSE,147,2.2,3.6,81,0.00,,,0.00,VWS V14.01,2013-08-22 13:35:00,
2013-08-22 09:40:00,70.3,64.2,30.07,SSE,155,2.7,2.7,81,0.00,,CLR,0.00,VWS V14.01,2013-08-22 13:40:00,
2013-08-22 09:45:00,70.3,64.2,30.07,South,177,4.9,4.9,81,0.00,,CLR,0.00,VWS V14.01,2013-08-22 13:45:00,
2013-08-22 09:51:00,70.3,64.2,30.07,South,177,4.9,4.9,81,0.00,,CLR,0.00,VWS V14.01,2013-08-22 13:51:00,
2013-08-22 09:56:00,70.3,64.2,30.07,SSE,154,3.6,4.9,81,0.00,,CLR,0.00,VWS V14.01,2013-08-22 13:56:00,
2013-08-22 10:01:00,70.3,64.2,30.04,South,169,3.6,3.6,81,0.00,,CLR,0.00,VWS V14.01,2013-08-22 14:01:00,
2013-08-22 10:06:00,70.3,64.2,30.04,South,173,6.7,6.7,81,0.00,,CLR,0.00,VWS V14.01,2013-08-22 14:06:00,
2013-08-22 10:11:00,70.3,64.2,30.04,SSE,150,3.1,3.1,81,0.00,,CLR,0.00,VWS V14.01,2013-08-22 14:11:00,
2013-08-22 10:16:00,70.3,64.2,30.04,SSE,166,4.0,4.0,81,0.00,,CLR,0.00,VWS V14.01,2013-08-22 14:16:00,
2013-08-22 10:21:00,73.8,61.3,30.04,SSW,194,0.0,0.0,65,0.00,,CLR,0.00,VWS V14.01,2013-08-22 14:21:00,
2013-08-22 10:26:00,73.8,61.3,30.04,WSW,238,3.1,3.1,65,0.00,,CLR,0.00,VWS V14.01,2013-08-22 14:26:00,
2013-08-22 10:31:00,73.8,61.3,30.04,SW,221,0.0,0.0,65,0.00,,CLR,0.00,VWS V14.01,2013-08-22 14:31:00,
2013-08-22 10:36:00,73.8,61.3,30.04,SSE,157,5.4,5.4,65,0.00,,CLR,0.00,VWS V14.01,2013-08-22 14:36:00,
2013-08-22 10:41:00,75.4,60.1,30.04,SSW,205,3.1,4.0,59,0.00,,CLR,0.00,VWS V14.01,2013-08-22 14:41:00,
2013-08-22 10:46:00,75.7,59.0,30.04,WSW,238,4.0,4.0,56,0.00,,CLR,0.00,VWS V14.01,2013-08-22 14:46:00,
2013-08-22 10:51:00,75.7,59.0,30.04,South,184,3.6,3.6,56,0.00,,CLR,0.00,VWS V14.01,2013-08-22 14:51:00,
2013-08-22 10:56:00,75.7,59.0,30.04,SSW,192,2.7,3.6,56,0.00,,CLR,0.00,VWS V14.01,2013-08-22 14:56:00,
2013-08-22 11:01:00,77.4,57.8,30.04,South,181,5.4,5.4,51,0.00,,CLR,0.00,VWS V14.01,2013-08-22 15:01:00,
2013-08-22 11:06:00,77.4,57.8,30.04,South,179,0.0,5.4,51,0.00,,CLR,0.00,VWS V14.01,2013-08-22 15:06:00,
2013-08-22 11:11:00,77.9,55.5,30.04,SW,236,5.8,5.8,46,0.00,,CLR,0.00,VWS V14.01,2013-08-22 15:11:00,
2013-08-22 11:16:00,78.3,56.4,30.04,SSE,159,4.0,5.8,47,0.00,,CLR,0.00,VWS V14.01,2013-08-22 15:16:00,
2013-08-22 11:21:00,78.3,56.4,30.04,SE,145,3.6,4.0,47,0.00,,CLR,0.00,VWS V14.01,2013-08-22 15:21:00,
2013-08-22 11:26:00,79.2,56.0,30.04,South,172,3.6,5.8,45,0.00,,CLR,0.00,VWS V14.01,2013-08-22 15:26:00,
2013-08-22 11:31:00,79.2,56.0,30.04,SSE,163,4.0,4.0,45,0.00,,CLR,0.00,VWS V14.01,2013-08-22 15:31:00,
2013-08-22 11:36:00,79.2,56.0,30.04,South,170,0.0,4.0,45,0.00,,CLR,0.00,VWS V14.01,2013-08-22 15:36:00,
2013-08-22 11:41:00,79.2,56.0,30.01,South,171,5.4,5.4,45,0.00,,SCT055,0.00,VWS V14.01,2013-08-22 15:41:00,
2013-08-22 11:46:00,79.2,56.0,30.01,South,172,6.3,6.3,45,0.00,,SCT055,0.00,VWS V14.01,2013-08-22 15:46:00,
2013-08-22 11:51:00,79.2,56.0,30.01,SSE,165,5.8,5.8,45,0.00,,SCT055,0.00,VWS V14.01,2013-08-22 15:51:00,
2013-08-22 11:56:00,79.2,56.0,30.01,SSE,165,5.8,5.8,45,0.00,,SCT055,0.00,VWS V14.01,2013-08-22 15:56:00,
2013-08-22 12:01:00,80.1,54.9,30.01,South,177,8.1,8.1,42,0.00,,SCT055,0.00,VWS V14.01,2013-08-22 16:01:00,
2013-08-22 12:06:00,80.1,54.9,30.01,SSE,166,3.6,8.1,42,0.00,,SCT055,0.00,VWS V14.01,2013-08-22 16:06:00,
2013-08-22 12:11:00,80.1,54.9,30.01,South,175,5.8,5.8,42,0.00,,SCT055,0.00,VWS V14.01,2013-08-22 16:11:00,
2013-08-22 12:16:00,80.1,54.9,30.01,SSW,210,2.7,5.8,42,0.00,,SCT055,0.00,VWS V14.01,2013-08-22 16:16:00,
2013-08-22 12:21:00,81.0,55.1,30.01,South,171,3.1,3.1,41,0.00,,SCT055,0.00,VWS V14.01,2013-08-22 16:21:00,
2013-08-22 12:26:00,81.0,55.1,30.01,South,169,5.4,5.4,41,0.00,,SCT055,0.00,VWS V14.01,2013-08-22 16:26:00,
2013-08-22 12:31:00,80.4,53.9,30.01,South,178,4.0,4.0,40,0.00,,SCT055,0.00,VWS V14.01,2013-08-22 16:31:00,
2013-08-22 12:37:00,80.1,53.6,30.01,SSW,208,4.0,4.0,40,0.00,,SCT055,0.00,VWS V14.01,2013-08-22 16:37:00,
2013-08-22 12:42:00,80.1,53.6,30.01,South,175,2.7,5.4,40,0.00,,,0.00,VWS V14.01,2013-08-22 16:42:00,
2013-08-22 12:47:00,80.1,53.6,30.01,SW,225,3.6,5.4,40,0.00,,,0.00,VWS V14.01,2013-08-22 16:47:00,
2013-08-22 12:52:00,80.1,53.6,30.01,SSE,168,0.0,0.0,40,0.00,,,0.00,VWS V14.01,2013-08-22 16:52:00,
2013-08-22 12:57:00,80.1,53.6,30.01,SSE,156,5.8,5.8,40,0.00,,,0.00,VWS V14.01,2013-08-22 16:57:00,
2013-08-22 13:02:00,80.1,53.6,30.01,SW,216,2.7,3.1,40,0.00,,,0.00,VWS V14.01,2013-08-22 17:02:00,
2013-08-22 13:07:00,79.3,55.6,30.01,SSW,206,3.6,3.6,44,0.00,,,0.00,VWS V14.01,2013-08-22 17:07:00,
2013-08-22 13:12:00,79.3,55.6,30.01,SSE,166,3.1,3.1,44,0.00,,,0.00,VWS V14.01,2013-08-22 17:12:00,
2013-08-22 13:17:00,79.5,54.4,29.98,SSE,165,5.4,6.3,42,0.00,,,0.00,VWS V14.01,2013-08-22 17:17:00,
2013-08-22 13:22:00,78.1,53.2,29.98,SSE,155,4.9,5.4,42,0.00,,,0.00,VWS V14.01,2013-08-22 17:22:00,
2013-08-22 13:27:00,78.1,53.2,30.01,SW,214,3.1,5.4,42,0.00,,,0.00,VWS V14.01,2013-08-22 17:27:00,
2013-08-22 13:32:00,78.1,53.2,30.01,South,181,4.0,4.0,42,0.00,,,0.00,VWS V14.01,2013-08-22 17:32:00,
2013-08-22 13:37:00,78.1,53.2,30.01,South,179,5.4,8.7,42,0.00,,,0.00,VWS V14.01,2013-08-22 17:37:00,
2013-08-22 13:42:00,75.2,54.2,30.01,SE,142,5.8,5.8,48,0.00,,,0.00,VWS V14.01,2013-08-22 17:42:00,
2013-08-22 13:47:00,75.2,54.2,30.01,SSE,159,5.4,5.8,48,0.00,,,0.00,VWS V14.01,2013-08-22 17:47:00,
2013-08-22 13:52:00,74.1,55.9,30.01,SSE,162,5.4,5.4,53,0.00,,,0.00,VWS V14.01,2013-08-22 17:52:00,
2013-08-22 13:57:00,74.1,55.9,30.01,SSE,154,3.1,5.4,53,0.00,,,0.00,VWS V14.01,2013-08-22 17:57:00,
2013-08-22 14:02:00,74.1,55.9,29.98,SSE,162,3.6,3.6,53,0.00,,,0.00,VWS V14.01,2013-08-22 18:02:00,
2013-08-22 14:07:00,75.6,58.3,29.98,South,171,2.2,3.6,55,0.00,,,0.00,VWS V14.01,2013-08-22 18:07:00,
2013-08-22 14:12:00,75.6,56.7,29.98,SSE,160,5.4,5.4,52,0.00,,,0.00,VWS V14.01,2013-08-22 18:12:00,
2013-08-22 14:17:00,74.8,56.6,29.98,SSW,196,0.0,5.4,53,0.00,,,0.00,VWS V14.01,2013-08-22 18:17:00,
2013-08-22 14:22:00,74.8,56.6,29.98,SSW,202,0.0,0.0,53,0.00,,,0.00,VWS V14.01,2013-08-22 18:22:00,
2013-08-22 14:27:00,74.8,56.6,29.98,South,174,0.0,0.0,53,0.00,,,0.00,VWS V14.01,2013-08-22 18:27:00,
2013-08-22 14:32:00,74.8,56.6,29.98,SSE,167,0.0,2.7,53,0.00,,,0.00,VWS V14.01,2013-08-22 18:32:00,
2013-08-22 14:37:00,72.7,59.4,29.98,SSE,168,0.0,2.7,63,0.00,,,0.00,VWS V14.01,2013-08-22 18:37:00,
2013-08-22 14:42:00,72.7,59.4,30.01,NNE,33,4.9,11.4,63,0.00,,-RA,0.00,VWS V14.01,2013-08-22 18:42:00,
2013-08-22 14:47:00,72.7,59.4,30.01,NW,308,3.6,11.4,63,0.00,,-RA,0.00,VWS V14.01,2013-08-22 18:47:00,
2013-08-22 14:52:00,72.7,59.4,30.01,ENE,68,0.0,3.6,63,0.00,,-RA,0.00,VWS V14.01,2013-08-22 18:52:00,
2013-08-22 14:57:00,72.7,59.4,30.04,North,349,0.0,3.6,63,0.00,,-RA,0.00,VWS V14.01,2013-08-22 18:57:00,
2013-08-22 15:02:00,72.7,59.4,30.04,NNW,341,0.0,0.0,63,0.12,,-RA,0.12,VWS V14.01,2013-08-22 19:02:00,
2013-08-22 15:07:00,72.7,59.4,30.04,NNW,341,0.0,0.0,63,0.12,,-RA,0.12,VWS V14.01,2013-08-22 19:07:00,
2013-08-22 15:12:00,72.7,59.4,30.04,NNW,341,0.0,0.0,63,0.24,,-RA,0.24,VWS V14.01,2013-08-22 19:12:00,
2013-08-22 15:17:00,72.7,59.4,30.01,East,82,0.0,0.0,63,0.24,,-RA,0.24,VWS V14.01,2013-08-22 19:17:00,
2013-08-22 15:22:00,72.7,59.4,30.01,East,82,0.0,0.0,63,0.24,,-RA,0.24,VWS V14.01,2013-08-22 19:22:00,
2013-08-22 15:27:00,72.7,59.4,30.01,South,182,0.0,0.0,63,0.24,,-RA,0.24,VWS V14.01,2013-08-22 19:27:00,
2013-08-22 15:32:00,72.7,59.4,30.01,South,182,0.0,0.0,63,0.24,,-RA,0.24,VWS V14.01,2013-08-22 19:32:00,
2013-08-22 15:37:00,72.7,59.4,30.01,South,182,0.0,0.0,63,0.31,,-RA,0.31,VWS V14.01,2013-08-22 19:37:00,
2013-08-22 15:42:00,72.7,59.4,29.98,South,182,0.0,0.0,63,0.39,,-RA,0.39,VWS V14.01,2013-08-22 19:42:00,
2013-08-22 15:47:00,72.7,59.4,29.98,South,182,0.0,0.0,63,0.39,,-RA,0.39,VWS V14.01,2013-08-22 19:47:00,
2013-08-22 15:52:00,72.7,59.4,29.98,South,182,0.0,0.0,63,0.39,,RA,0.39,VWS V14.01,2013-08-22 19:52:00,
2013-08-22 15:57:00,72.7,59.4,29.98,North,3,0.0,0.0,63,0.39,,RA,0.39,VWS V14.01,2013-08-22 19:57:00,
2013-08-22 16:02:00,72.7,59.4,29.98,North,357,0.0,0.0,63,0.39,,RA,0.39,VWS V14.01,2013-08-22 20:02:00,
2013-08-22 16:07:00,72.7,59.4,29.98,North,357,0.0,0.0,63,0.39,,RA,0.39,VWS V14.01,2013-08-22 20:07:00,
2013-08-22 16:12:00,72.7,59.4,29.98,North,357,0.0,0.0,63,0.20,,RA,0.39,VWS V14.01,2013-08-22 20:12:00,
2013-08-22 16:17:00,72.7,59.4,29.98,North,357,0.0,0.0,63,0.20,,RA,0.39,VWS V14.01,2013-08-22 20:17:00,
2013-08-22 16:22:00,72.7,59.4,29.98,North,357,0.0,0.0,63,0.16,,RA,0.39,VWS V14.01,2013-08-22 20:22:00,
2013-08-22 16:27:00,72.7,59.4,29.98,North,357,0.0,0.0,63,0.16,,RA,0.39,VWS V14.01,2013-08-22 20:27:00,
2013-08-22 16:32:00,72.7,59.4,29.96,North,357,0.0,0.0,63,0.16,,RA,0.39,VWS V14.01,2013-08-22 20:32:00,
2013-08-22 16:37:00,72.7,59.4,29.96,North,357,0.0,0.0,63,0.16,,RA,0.39,VWS V14.01,2013-08-22 20:37:00,
2013-08-22 16:42:00,72.7,59.4,29.98,SE,133,0.0,0.0,63,0.00,,-RA,0.39,VWS V14.01,2013-08-22 20:42:00,
2013-08-22 16:47:00,72.7,59.4,29.98,SSE,166,0.0,0.0,63,0.00,,-RA,0.39,VWS V14.01,2013-08-22 20:47:00,
2013-08-22 16:52:00,72.7,59.4,29.98,SSE,166,0.0,0.0,63,0.00,,BKN110,0.39,VWS V14.01,2013-08-22 20:52:00,
2013-08-22 16:57:00,72.7,59.4,29.98,SSE,166,0.0,0.0,63,0.00,,BKN110,0.39,VWS V14.01,2013-08-22 20:57:00,
2013-08-22 17:02:00,72.7,59.4,29.98,SSE,166,0.0,0.0,63,0.00,,BKN110,0.39,VWS V14.01,2013-08-22 21:02:00,
2013-08-22 17:07:00,72.7,59.4,29.98,SSE,166,0.0,0.0,63,0.00,,BKN110,0.39,VWS V14.01,2013-08-22 21:07:00,
2013-08-22 17:12:00,72.7,59.4,29.98,SSE,166,0.0,0.0,63,0.00,,BKN110,0.39,VWS V14.01,2013-08-22 21:12:00,
2013-08-22 17:17:00,72.7,59.4,29.98,SSE,166,0.0,0.0,63,0.00,,BKN110,0.39,VWS V14.01,2013-08-22 21:17:00,
2013-08-22 17:22:00,72.7,59.4,29.98,SSE,166,0.0,0.0,63,0.00,,BKN110,0.39,VWS V14.01,2013-08-22 21:22:00,
2013-08-22 17:27:00,72.7,59.4,29.98,SSE,168,0.0,0.0,63,0.00,,BKN110,0.39,VWS V14.01,2013-08-22 21:27:00,
2013-08-22 17:32:00,72.7,59.4,29.98,SSE,168,0.0,0.0,63,0.00,,BKN110,0.39,VWS V14.01,2013-08-22 21:32:00,
2013-08-22 17:37:00,72.7,59.4,29.98,SSE,168,0.0,0.0,63,0.00,,BKN110,0.39,VWS V14.01,2013-08-22 21:37:00,
2013-08-22 17:43:00,72.7,59.4,29.98,SSE,168,0.0,0.0,63,0.00,,BKN110,0.39,VWS V14.01,2013-08-22 21:43:00,
2013-08-22 17:48:00,72.7,59.4,29.98,SSE,167,0.0,0.0,63,0.00,,BKN110,0.39,VWS V14.01,2013-08-22 21:48:00,
2013-08-22 17:53:00,72.7,59.4,29.98,SSE,167,0.0,0.0,63,0.00,,-RA,0.39,VWS V14.01,2013-08-22 21:53:00,
2013-08-22 17:58:00,72.7,59.4,29.98,SSE,167,0.0,0.0,63,0.00,,-RA,0.39,VWS V14.01,2013-08-22 21:58:00,
2013-08-22 18:03:00,72.7,59.4,29.98,SSE,167,0.0,0.0,63,0.00,,-RA,0.39,VWS V14.01,2013-08-22 22:03:00,
2013-08-22 18:08:00,72.7,59.4,29.98,SSE,167,0.0,0.0,63,0.00,,-RA,0.39,VWS V14.01,2013-08-22 22:08:00,
2013-08-22 18:13:00,72.7,59.4,29.98,SSE,167,0.0,0.0,63,0.00,,-RA,0.39,VWS V14.01,2013-08-22 22:13:00,
2013-08-22 18:18:00,72.7,59.4,29.98,SSE,163,0.0,0.0,63,0.00,,-RA,0.39,VWS V14.01,2013-08-22 22:18:00,
2013-08-22 18:23:00,72.7,59.4,29.98,South,173,0.0,0.0,63,0.00,,-RA,0.39,VWS V14.01,2013-08-22 22:23:00,
2013-08-22 18:28:00,72.7,59.4,29.98,South,173,0.0,0.0,63,0.00,,-RA,0.39,VWS V14.01,2013-08-22 22:28:00,
2013-08-22 18:33:00,72.7,59.4,29.98,South,173,0.0,0.0,63,0.00,,-RA,0.39,VWS V14.01,2013-08-22 22:33:00,
2013-08-22 18:38:00,65.7,61.0,29.98,South,173,0.0,0.0,85,0.00,,-RA,0.39,VWS V14.01,2013-08-22 22:38:00,
2013-08-22 18:43:00,65.7,61.0,29.98,South,173,0.0,0.0,85,0.00,,-RA,0.39,VWS V14.01,2013-08-22 22:43:00,
2013-08-22 18:48:00,65.7,61.0,29.98,South,173,0.0,0.0,85,0.00,,-RA,0.39,VWS V14.01,2013-08-22 22:48:00,
2013-08-22 18:53:00,65.7,61.0,29.98,South,173,0.0,0.0,85,0.00,,-RA,0.39,VWS V14.01,2013-08-22 22:53:00,
2013-08-22 18:58:00,65.7,61.0,29.98,South,170,0.0,0.0,85,0.00,,-RA,0.39,VWS V14.01,2013-08-22 22:58:00,
2013-08-22 19:03:00,65.7,61.0,29.98,South,170,0.0,0.0,85,0.00,,-RA,0.39,VWS V14.01,2013-08-22 23:03:00,
2013-08-22 19:08:00,65.7,61.0,29.98,South,171,0.0,0.0,85,0.00,,-RA,0.39,VWS V14.01,2013-08-22 23:08:00,
2013-08-22 19:13:00,65.7,61.0,29.98,South,171,0.0,0.0,85,0.00,,-RA,0.39,VWS V14.01,2013-08-22 23:13:00,
2013-08-22 19:18:00,65.7,61.0,29.98,South,171,4.0,4.0,85,0.00,,-RA,0.39,VWS V14.01,2013-08-22 23:18:00,
2013-08-22 19:23:00,65.7,61.0,29.98,SSE,166,0.0,3.6,85,0.00,,-RA,0.39,VWS V14.01,2013-08-22 23:23:00,
2013-08-22 19:28:00,65.7,61.0,29.98,SSE,166,0.0,3.6,85,0.00,,-RA,0.39,VWS V14.01,2013-08-22 23:28:00,
2013-08-22 19:33:00,65.7,61.0,29.98,SSE,166,0.0,0.0,85,0.00,,-RA,0.39,VWS V14.01,2013-08-22 23:33:00,
2013-08-22 19:38:00,65.7,61.0,29.98,SSE,166,0.0,0.0,85,0.00,,-RA,0.39,VWS V14.01,2013-08-22 23:38:00,
2013-08-22 19:43:00,65.7,61.0,29.98,SSE,166,0.0,0.0,85,0.00,,CLR,0.39,VWS V14.01,2013-08-22 23:43:00,
2013-08-22 19:48:00,65.7,61.0,29.98,SSE,166,0.0,0.0,85,0.00,,CLR,0.39,VWS V14.01,2013-08-22 23:48:00,
2013-08-22 19:53:00,65.7,61.0,29.98,SSE,166,0.0,0.0,85,0.00,,-RA,0.39,VWS V14.01,2013-08-22 23:53:00,
2013-08-22 19:58:00,65.7,61.0,29.98,SSE,166,0.0,0.0,85,0.00,,-RA,0.39,VWS V14.01,2013-08-22 23:58:00,
2013-08-22 20:04:00,65.7,61.0,29.98,SSE,166,0.0,0.0,85,0.00,,-RA,0.39,VWS V14.01,2013-08-23 00:04:00,
2013-08-22 20:09:00,65.7,61.0,29.98,SSE,166,0.0,0.0,85,0.00,,-RA,0.39,VWS V14.01,2013-08-23 00:09:00,
2013-08-22 20:14:00,65.7,61.0,29.98,SSE,166,0.0,0.0,85,0.00,,,0.39,VWS V14.01,2013-08-23 00:14:00,
2013-08-22 20:19:00,65.7,61.0,29.98,SSE,166,0.0,0.0,85,0.00,,,0.39,VWS V14.01,2013-08-23 00:19:00,
2013-08-22 20:24:00,65.7,61.0,29.98,SSE,166,0.0,0.0,85,0.00,,,0.39,VWS V14.01,2013-08-23 00:24:00,
2013-08-22 20:29:00,65.7,61.0,29.98,SSE,166,0.0,0.0,85,0.00,,,0.39,VWS V14.01,2013-08-23 00:29:00,
2013-08-22 20:34:00,65.7,61.0,29.98,SSE,166,0.0,0.0,85,0.00,,,0.39,VWS V14.01,2013-08-23 00:34:00,
2013-08-22 20:39:00,65.7,61.0,29.98,SSE,166,0.0,0.0,85,0.00,,,0.39,VWS V14.01,2013-08-23 00:39:00,
2013-08-22 20:44:00,65.7,61.0,29.98,SSE,166,0.0,0.0,85,0.00,,,0.39,VWS V14.01,2013-08-23 00:44:00,
2013-08-22 20:48:00,65.7,61.0,29.98,SSE,166,0.0,0.0,85,0.00,,,0.39,VWS V14.01,2013-08-23 00:48:00,
2013-08-22 20:54:00,65.7,61.0,29.98,SSE,166,0.0,0.0,85,0.00,,,0.39,VWS V14.01,2013-08-23 00:54:00,
2013-08-22 20:59:00,65.7,61.0,29.98,SSE,166,0.0,0.0,85,0.00,,,0.39,VWS V14.01,2013-08-23 00:59:00,
2013-08-22 21:04:00,65.7,61.0,29.98,SSE,166,0.0,0.0,85,0.00,,,0.39,VWS V14.01,2013-08-23 01:04:00,
2013-08-22 21:09:00,65.7,61.0,29.98,SSE,166,0.0,0.0,85,0.00,,,0.39,VWS V14.01,2013-08-23 01:09:00,
2013-08-22 21:14:00,65.7,61.0,29.98,SSE,166,0.0,0.0,85,0.00,,,0.39,VWS V14.01,2013-08-23 01:14:00,
2013-08-22 21:19:00,65.7,61.0,29.98,SSE,166,0.0,0.0,85,0.00,,,0.39,VWS V14.01,2013-08-23 01:19:00,
2013-08-22 21:24:00,65.7,61.0,29.98,SSE,166,0.0,0.0,85,0.00,,,0.39,VWS V14.01,2013-08-23 01:24:00,
2013-08-22 21:29:00,65.7,61.0,29.98,SSE,166,0.0,0.0,85,0.00,,,0.39,VWS V14.01,2013-08-23 01:29:00,
2013-08-22 21:34:00,65.7,61.0,29.98,SSE,166,0.0,0.0,85,0.00,,,0.39,VWS V14.01,2013-08-23 01:34:00,
2013-08-22 21:39:00,65.7,61.0,29.98,SSE,166,0.0,0.0,85,0.00,,,0.39,VWS V14.01,2013-08-23 01:39:00,
2013-08-22 21:44:00,65.7,61.0,29.98,SSE,166,0.0,0.0,85,0.00,,BKN080,0.39,VWS V14.01,2013-08-23 01:44:00,
2013-08-22 21:49:00,65.7,61.0,29.98,SSE,166,0.0,0.0,85,0.00,,BKN080,0.39,VWS V14.01,2013-08-23 01:49:00,
2013-08-22 21:54:00,65.7,61.0,29.98,SSE,166,0.0,0.0,85,0.00,,BKN080,0.39,VWS V14.01,2013-08-23 01:54:00,
2013-08-22 21:59:00,65.7,61.0,30.01,SSE,166,0.0,0.0,85,0.00,,BKN080,0.39,VWS V14.01,2013-08-23 01:59:00,
2013-08-22 22:04:00,65.7,61.0,30.01,SSE,166,0.0,0.0,85,0.00,,BKN014,0.39,VWS V14.01,2013-08-23 02:04:00,
2013-08-22 22:09:00,65.7,61.0,30.01,East,88,0.0,0.0,85,0.00,,BKN014,0.39,VWS V14.01,2013-08-23 02:09:00,
2013-08-22 22:14:00,65.7,61.0,30.01,East,88,0.0,0.0,85,0.00,,BKN014,0.39,VWS V14.01,2013-08-23 02:14:00,
2013-08-22 22:19:00,65.7,61.0,30.01,East,88,0.0,0.0,85,0.00,,BKN014,0.39,VWS V14.01,2013-08-23 02:19:00,
2013-08-22 22:24:00,65.7,61.0,30.01,SSE,162,0.0,0.0,85,0.00,,BKN014,0.39,VWS V14.01,2013-08-23 02:24:00,
2013-08-22 22:29:00,65.7,61.0,30.01,SSE,163,0.0,0.0,85,0.00,,BKN014,0.39,VWS V14.01,2013-08-23 02:29:00,
2013-08-22 22:34:00,65.7,61.0,30.01,SSE,163,0.0,0.0,85,0.00,,BKN014,0.39,VWS V14.01,2013-08-23 02:34:00,
2013-08-22 22:39:00,65.7,61.0,30.01,SSE,163,0.0,0.0,85,0.00,,BKN014,0.39,VWS V14.01,2013-08-23 02:39:00,
2013-08-22 22:44:00,65.7,61.0,30.01,SSE,163,0.0,0.0,85,0.00,,OVC060,0.39,VWS V14.01,2013-08-23 02:44:00,
2013-08-22 22:49:00,65.7,61.0,30.01,SSE,163,0.0,0.0,85,0.00,,OVC060,0.39,VWS V14.01,2013-08-23 02:49:00,
2013-08-22 22:54:00,65.7,61.0,30.01,SSE,163,0.0,0.0,85,0.00,,BKN065,0.39,VWS V14.01,2013-08-23 02:54:00,
2013-08-22 22:59:00,65.7,61.0,30.01,NNW,344,0.0,0.0,85,0.00,,BKN065,0.39,VWS V14.01,2013-08-23 02:59:00,
2013-08-22 23:04:00,65.7,61.0,30.01,NNW,344,0.0,0.0,85,0.00,,BKN065,0.39,VWS V14.01,2013-08-23 03:04:00,
2013-08-22 23:09:00,65.7,61.0,30.01,NNW,344,0.0,0.0,85,0.00,,BKN065,0.39,VWS V14.01,2013-08-23 03:09:00,
2013-08-22 23:14:00,65.7,61.0,30.01,NNW,344,0.0,0.0,85,0.00,,BKN065,0.39,VWS V14.01,2013-08-23 03:14:00,
2013-08-22 23:19:00,65.7,61.0,30.01,NNW,334,0.0,4.0,85,0.00,,BKN065,0.39,VWS V14.01,2013-08-23 03:19:00,
2013-08-22 23:24:00,65.7,61.0,30.01,NNW,338,2.7,2.7,85,0.00,,BKN065,0.39,VWS V14.01,2013-08-23 03:24:00,
2013-08-22 23:29:00,65.7,61.0,30.01,NNW,338,2.7,2.7,85,0.00,,BKN065,0.39,VWS V14.01,2013-08-23 03:29:00,
2013-08-22 23:34:00,65.7,61.0,30.01,NNW,332,0.0,2.7,85,0.00,,BKN065,0.39,VWS V14.01,2013-08-23 03:34:00,
2013-08-22 23:39:00,65.7,61.0,30.01,NW,307,0.0,2.7,85,0.00,,BKN065,0.39,VWS V14.01,2013-08-23 03:39:00,
2013-08-22 23:44:00,65.7,61.0,30.01,NNE,27,0.0,0.0,85,0.00,,BKN065,0.39,VWS V14.01,2013-08-23 03:44:00,
2013-08-22 23:49:00,65.7,61.0,30.01,NNE,26,0.0,0.0,85,0.00,,BKN065,0.39,VWS V14.01,2013-08-23 03:49:00,
2013-08-22 23:54:00,65.7,61.0,30.01,NNE,25,0.0,0.0,85,0.00,,CLR,0.39,VWS V14.01,2013-08-23 03:54:00,
2013-08-22 23:59:00,65.7,61.0,30.01,WNW,295,4.0,4.0,85,0.00,,CLR,0.39,VWS V14.01,2013-08-23 03:59:00,